EST,Max TemperatureF,Mean TemperatureF,Min TemperatureF,Max Dew PointF,MeanDew PointF,Min DewpointF,Max Humidity, Mean Humidity, Min Humidity, Max Sea Level PressureIn, Mean Sea Level PressureIn, Min Sea Level PressureIn, Max VisibilityMiles, Mean VisibilityMiles, Min VisibilityMiles, Max Wind SpeedMPH, Mean Wind SpeedMPH, Max Gust SpeedMPH,PrecipitationIn, CloudCover, Events, WindDirDegrees
2013-1-1,33,22,12,23,10,0,69,56,42,29.86,29.72,29.60,10,10,10,17,12,36,0.00,3,,268
2013-1-2,23,12,1,9,-1,-11,68,57,42,30.04,29.90,29.81,10,10,9,18,9,34,0.00,2,,257
2013-1-3,17,8,0,1,-5,-9,73,56,35,30.05,29.99,29.90,10,10,10,13,7,20,0.00,0,,241
2013-1-4,33,20,6,21,15,1,86,68,52,29.89,29.78,29.70,10,10,8,22,9,30,0.00,5,,247
2013-1-5,33,24,15,25,15,9,80,58,41,30.20,30.02,29.72,10,10,2,22,10,36,0.00,2,,277
2013-1-6,33,24,14,25,18,10,93,76,60,30.15,29.97,29.87,10,10,3,10,2,,0.00,6,,247
2013-1-7,33,22,8,27,13,3,93,67,40,30.33,30.21,29.90,10,10,9,14,4,22,0.00,2,,271
2013-1-8,41,24,8,21,16,3,92,68,42,30.31,30.23,30.17,10,10,10,16,6,20,0.00,0,,247
2013-1-9,42,28,15,27,20,12,93,75,49,30.35,30.16,29.92,10,9,5,14,3,26,0.00,3,,261
2013-1-10,42,35,28,28,22,19,70,54,42,30.50,30.29,29.93,10,10,10,23,13,34,0.00,3,,281
2013-1-11,35,27,19,30,22,16,93,78,56,30.49,30.37,30.21,10,9,3,5,1,,0.03,3,,53
2013-1-12,37,34,32,36,32,30,100,91,87,30.19,30.14,30.10,4,1,0,5,1,,0.01,8,,243
2013-1-13,37,35,33,36,34,32,100,93,87,30.13,30.05,29.94,7,1,0,9,3,,0.00,8,,267
2013-1-14,55,44,33,45,33,21,100,73,46,30.23,30.02,29.84,10,7,0,17,5,29,0.00,3,,259
2013-1-15,37,32,26,25,20,18,80,64,45,30.29,30.24,30.20,10,10,10,10,4,,0.00,1,,265
2013-1-16,28,27,26,27,24,21,93,84,74,30.22,29.97,29.76,10,6,0,7,2,,0.08,7,,46
2013-1-17,37,27,17,27,16,-4,93,63,38,30.09,29.92,29.76,10,10,4,17,8,28,0.00,1,,262
2013-1-18,19,12,5,3,-8,-17,62,39,30,30.34,30.24,30.05,10,10,10,15,7,25,0.00,1,,267
2013-1-19,35,26,17,25,13,1,74,63,49,30.28,30.03,29.80,10,10,10,9,4,,0.00,5,,233
2013-1-20,44,32,21,30,17,-2,86,56,33,29.87,29.65,29.46,10,10,10,25,8,46,0.00,2,,251
2013-1-21,24,19,14,16,2,-4,86,50,33,30.01,29.91,29.77,10,10,4,18,9,31,0.00,3,,242
2013-1-22,19,12,5,14,3,-8,85,62,35,29.99,29.83,29.73,10,9,1,16,8,25,0.00,3,,275
2013-1-23,5,2,-2,-6,-15,-18,72,49,36,30.08,30.04,29.97,10,10,2,15,6,23,0.00,1,,283
2013-1-24,10,2,-5,-11,-16,-20,55,43,31,30.15,30.05,29.99,10,10,10,18,8,33,0.00,1,,271
2013-1-25,17,9,1,-6,-8,-11,61,47,32,30.21,30.13,30.01,10,10,10,17,10,23,0.00,2,,252
2013-1-26,17,12,6,0,-5,-11,72,47,32,30.15,30.04,29.96,10,10,10,15,4,23,0.00,1,,280
2013-1-27,21,14,8,0,-4,-9,62,44,30,30.41,30.31,30.15,10,10,10,17,9,26,0.00,0,,265
2013-1-28,21,16,10,16,4,-8,86,60,33,30.39,30.23,30.02,10,7,0,10,4,,0.05,5,,316
2013-1-29,30,19,8,28,18,7,93,81,64,30.17,30.11,30.02,10,8,1,9,0,,0.00,4,,66
2013-1-30,51,40,30,50,32,28,100,92,87,30.11,29.72,29.40,10,1,0,10,0,,0.15,8,,224
2013-1-31,59,44,26,54,30,7,100,64,37,29.47,29.17,28.86,10,9,0,37,16,48,0.35,7,,229